Location: Grand Lesivy
(48.4667°N, 4.3333°W)
Time: 12:41:02
(UTC+00:00)

Daily predictions for brighter satellites

Satellite Brightness Start Highest point End
(mag) Time Altitude Azimuth Time Altitude Azimuth Time Altitude Azimuth
Cosmos 2344 4.4 17:20:45 10° NW 17:29:23 56° NE 17:41:09 10° ESE
FengYun 1-2 T 4.3 17:33:56 10° SSE 17:39:29 71° ENE 17:45:07 10° N
Cosmos 990 Rocket 4.4 17:34:57 10° S 17:39:53 45° ESE 17:44:48 10° NNE
YAOGAN 1 4.0 17:37:59 10° ESE 17:40:54 18° ENE 17:43:48 10° NNE
Cosmos 1844 Rocket 2.8 17:35:39 10° SSW 17:41:20 85° WNW 17:47:01 10° NNE
Cosmos 1892 Rocket 3.8 17:37:15 10° SSW 17:41:34 73° W 17:45:55 10° N
Aureole 3 Rocket 3.8 17:39:45 10° NNE 17:42:16 20° ENE 17:45:09 10° SE
H-2A R/B 2.7 17:38:25 10° SSE 17:42:35 80° WSW 17:46:57 10° NNW
Cosmos 1818 3.9 17:37:24 10° SW 17:42:48 67° NW 17:48:16 10° NE
COSMOS 2406 3.6 17:37:40 10° NNW 17:43:11 43° NE 17:48:39 10° SE
Cosmos 2082 Rocket 3.2 17:38:33 10° N 17:43:16 25° NE 17:47:57 10° E
Cosmos 1844 3.8 17:39:41 10° SSW 17:45:22 86° ESE 17:51:10 10° NNE
NOSS 3-1 (A) 4.1 17:39:46 10° NW 17:47:00 63° NE 17:55:27 10° ESE
X-37B 1.6 17:44:29 10° WSW 17:47:33 43° S 17:50:36 10° ESE
Cosmos 1703 3.8 17:44:10 10° SSE 17:47:44 37° E 17:51:20 10° NNE
ISS -3.3 17:47:12 10° W 17:50:30 52° N 17:53:50 10° ENE
Cosmos 1812 Rocket 3.9 17:47:17 10° N 17:51:27 41° ENE 17:55:34 10° SE
Meteor 2-1 Rocket 4.2 17:47:44 10° N 17:53:18 86° ENE 17:58:49 10° SSE
ATLAS 2AS CENTAUR R/B 4.3 17:46:42 10° WNW 17:53:23 29° NNW 17:59:50 10° NE
ATLAS 5 CENTAUR R/B 3.6 17:52:41 10° WNW 17:55:51 19° NNW 17:59:22 10° NNE
Okean O Rocket 1.7 17:51:33 10° SSE 17:55:59 84° WSW 18:00:24 10° NNW
Iridium 4 Rocket 4.0 17:54:52 10° N 17:59:51 36° ENE 18:04:24 10° SE
CZ-4 R/B 2.3 17:56:57 10° SE 18:00:20 27° ENE 18:03:41 10° N
ERS-2 3.5 17:59:16 10° NE 18:01:56 19° E 18:04:35 10° SE
SKYMED 2 4.1 17:57:57 10° NNE 18:02:03 39° E 18:06:07 10° SSE
Meteor 2-13 Rocket 4.5 17:59:42 10° S 18:05:50 88° E 18:12:03 10° N
CZ-4C R/B 4.0 18:01:28 10° NW 18:06:01 22° N 18:11:13 10° NE
Okean-O 3.3 18:03:57 10° SE 18:07:52 31° ENE 18:11:47 10° N
Cosmos 1340 2.7 18:07:31 10° S 18:11:10 54° E 18:14:52 10° NNE
Cosmos 2278 Rocket 2.8 18:06:38 10° S 18:11:45 36° ESE 18:16:52 10° NE
Cosmos 1346 Rocket 3.9 18:08:41 10° SE 18:11:49 24° E 18:15:01 10° NE
USA 234 3.9 18:05:52 11° ENE 18:11:53 44° N 18:18:00 10° WNW
CZ-2C R/B 3.2 18:10:53 10° SSE 18:16:19 66° ENE 18:22:03 10° N
CZ-4B R/B 4.3 18:13:26 10° S 18:18:53 52° W 18:24:25 10° NNW
COSMOS 2455 4.2 18:15:08 10° WSW 18:20:36 35° NW 18:26:06 10° NNE
Cosmos 405 2.9 18:18:13 10° N 18:21:44 61° ENE 18:25:12 10° SSE
Cosmos 1455 3.7 18:18:39 10° NNW 18:22:17 41° W 18:25:54 10° SSW
NOSS 2-1 (E) 3.0 18:20:37 10° SW 18:23:55 78° NW 18:26:47 15° NE
Cosmos 1627 Rocket 4.5 18:21:06 10° S 18:27:15 67° E 18:33:32 10° NNE
Cosmos 1626 Rocket 3.9 18:23:26 10° SSW 18:27:50 69° W 18:32:18 10° N
TELKOM 3 2.6 18:25:46 10° WNW 18:27:56 73° NNE 18:28:34 40° E
Cosmos 1869 4.4 18:26:43 10° NNE 18:29:51 22° ENE 18:30:11 22° ENE
ARGOS 3.6 18:25:04 10° SE 18:29:59 38° ENE 18:34:57 10° N
PSLV R/B 4.4 18:29:21 10° NNE 18:33:22 40° E 18:37:20 10° S
Cosmos 1898 Rocket 3.6 18:29:26 10° SSW 18:34:42 77° WNW 18:39:56 10° NNE
Cosmos 372 Rocket 4.3 18:30:31 10° S 18:35:27 45° ESE 18:39:58 12° NE
Cosmos 1092 Rocket 4.0 18:29:58 10° S 18:36:09 88° WNW 18:42:20 10° N
CZ-4B R/B 1.4 18:33:44 10° N 18:37:03 77° WNW 18:40:15 10° SSW
CZ-2C R/B 3.7 18:33:45 11° NE 18:38:14 26° E 18:42:49 10° SSE
Cosmos 1328 3.8 18:34:30 10° SSW 18:38:28 81° W 18:42:28 10° N
CZ-2D R/B 3.6 18:36:54 10° S 18:40:42 68° WSW 18:44:32 10° NNW
MOS 1 Rocket 3.0 18:40:37 10° NNE 18:44:55 86° E 18:49:16 10° SSW
Cosmos 1048 Rocket 4.3 18:40:52 10° NNW 18:45:46 43° ENE 18:49:36 16° SE
Cosmos-2242 2.9 18:42:07 10° N 18:46:26 79° E 18:50:46 10° SSE
COSMO-SKYMED 1 2.8 18:45:51 10° N 18:50:11 70° WNW 18:54:30 10° SSW
Meteor 2-15 4.4 18:44:01 10° N 18:50:13 84° E 18:56:22 10° S
Meteor 1-11 4.1 18:45:52 10° S 18:51:32 78° E 18:57:10 10° NNE
Cosmos 1758 Rocket 3.6 18:50:04 10° S 18:54:33 88° W 18:59:05 10° N
USA 290 2.9 18:51:33 10° NNW 18:54:40 55° WSW 18:57:47 10° S
Cosmos 1937 Rocket 3.8 18:51:58 10° SSW 18:57:15 69° WNW 19:02:36 10° NNE
Cosmos 2098 Rocket 4.4 18:51:08 10° S 18:58:35 89° E 19:05:44 10° N
SL-08 RB Rocket 3.9 18:59:18 25° SE 19:01:34 45° ENE 19:05:51 10° N
CSL-04 Debris 4.0 18:58:24 10° SSE 19:03:44 69° ENE 19:09:07 10° N
Cosmos 2221 4.1 19:01:59 10° N 19:03:42 20° NNE 19:03:42 20° NNE
Helios 1A Rocket 2.8 19:02:24 10° SSE 19:06:33 86° ENE 19:10:43 10° NNW
H-2A R/B 4.4 19:03:27 10° N 19:06:54 23° WNW 19:10:16 10° WSW
Cosmos 389 Rocket 4.0 19:04:20 10° N 19:05:55 24° N 19:05:55 24° N
Cosmos 1833 Rocket 3.3 19:02:22 10° NW 19:07:52 58° WSW 19:13:22 10° S
H-2A R/B 2.1 19:03:14 10° SSE 19:08:18 80° WSW 19:13:35 10° NNW
Cosmos 1125 Rocket 4.2 19:04:46 10° SSE 19:08:41 32° ESE 19:08:41 32° ESE
Cosmos 2298 Rocket 4.1 19:06:50 10° S 19:11:58 51° ESE 19:13:35 38° ENE
Cosmos 1689 Rocket 2.7 19:13:24 49° SW 19:13:24 49° SW 19:15:37 10° SSW
Cosmos 2266 Rocket 4.1 19:08:28 10° SSE 19:14:23 48° E 19:20:13 10° NNE
SJ 16-02 4.1 19:13:02 10° W 19:15:32 15° NW 19:18:03 10° NNW
YAOGAN 1 3.1 19:12:18 10° S 19:16:34 59° W 19:20:52 10° NNW
NOSS 2-2 (C) 4.5 19:13:07 10° NW 19:18:12 54° NE 19:20:07 40° E
HJ-1C 3.5 19:20:23 74° WSW 19:20:29 75° WSW 19:23:51 10° NNW
X-37B 2.6 19:21:14 10° WSW 19:23:47 22° SSW 19:23:54 22° SSW
In-Cosmos 22 Rocket 4.2 19:18:17 10° S 19:23:58 63° E 19:29:35 10° NNE
deb Kosmos-1763 4.4 19:22:44 10° NNW 19:26:18 61° WSW 19:26:52 52° SSW
Cosmos 1825 Rocket 4.2 19:22:07 10° SSW 19:26:26 56° WNW 19:30:49 10° N
Cosmos 1553 Rocket 4.3 19:20:34 10° NNW 19:26:56 68° W 19:33:10 10° S
ISS -2.7 19:24:18 10° WNW 19:26:49 41° NW 19:26:49 41° NW
Cosmos 2082 Rocket 2.4 19:22:13 10° NNW 19:27:57 73° WSW 19:33:37 10° SSE
CZ-4 R/B 3.3 19:31:43 10° SSW 19:35:17 30° W 19:38:50 10° NNW
ERS-2 3.6 19:33:12 17° N 19:35:35 35° WNW 19:38:55 10° SW
MetOp-A 4.1 19:37:46 61° ENE 19:37:46 61° ENE 19:42:52 10° N
Meteor 2-21 4.3 19:33:53 10° S 19:39:54 69° E 19:46:02 10° NNE
NOSS 2-2 (E) 4.3 19:36:02 10° NW 19:41:28 82° NE 19:43:31 48° SE
ATLAS 5 CENTAUR R/B 4.0 19:39:30 10° NNW 19:42:25 15° N 19:42:29 15° N
Okean-O 4.4 19:40:21 10° SSW 19:44:19 32° W 19:48:18 10° NNW
CSL-04 Rocket 4.1 19:39:34 10° S 19:44:58 62° WSW 19:50:28 10° NNW
Cosmos 2315 Rocket 3.8 19:39:26 10° N 19:45:41 67° ENE 19:46:33 60° ESE
Cosmos 883 Rocket 4.3 19:40:16 10° N 19:46:31 80° E 19:50:11 26° SSE
ATLAS 2AS CENTAUR R/B 4.0 19:40:26 10° NW 19:46:50 27° N 19:48:21 25° NNE
Meteor 2-14 Rocket 4.2 19:41:52 10° S 19:47:55 76° E 19:54:02 10° NNE
Ariane Rocket 4.2 19:51:36 31° N 19:51:36 31° N 19:54:19 10° N
IRS-1A Rocket 4.4 19:51:16 60° NE 19:51:16 60° NE 19:56:29 10° N
S3M 4.4 19:47:25 10° NNW 19:53:26 61° W 19:59:26 10° S
USA 234 3.6 19:53:12 44° NE 19:54:11 47° NNE 20:00:24 10° WNW
Cosmos 2278 Rocket 3.2 19:50:20 10° SW 19:55:44 44° NW 19:59:05 22° N
CZ-4C R/B 3.9 19:51:14 10° NW 19:56:46 28° NNE 19:56:57 28° NNE
Cosmos 1655 Rocket 4.1 19:51:23 10° SSW 19:57:35 72° W 20:03:49 10° N
Cosmos 44 Rocket 3.7 19:57:51 10° SW 20:02:05 63° WSW 20:02:05 63° WSW
USA 281 4.3 20:04:50 30° NNE 20:04:50 30° NNE 20:08:53 10° NNW
CZ-2C R/B 3.3 20:15:10 21° N 20:18:50 56° WNW 20:24:18 10° SW
ATLAS 2AS CENTAUR R/B 4.4 21:32:14 10° NW 21:35:47 28° NNW 21:35:47 28° NNW
